Location: Joplin, MO
(37.0842°N, 94.5133°W)
Time: 20:53:01
(UTC+02:00)

Courier 1B Rocket - Pass Details

Date: 04 April 2023
Orbit: 920 x 1202 km, 28.2° (Epoch: 05 June)

Event Time Altitude Azimuth Distance (km) Brightness Sun altitude
Rises 01:19:50 0° 246° (WSW) 4,085 9.7 15.6°
Reaches altitude 10° 01:22:54 10° 239° (WSW) 3,108 9.0 14.9°
Maximum altitude 01:30:00 40° 173° (S) 1,631 6.3 13.5°
Drops below altitude 10° 01:36:46 10° 106° (ESE) 2,966 7.0 12.2°
Sets 01:39:37 0° 99° (E) 3,882 7.5 11.6°
